Ramona, CA

10:11 PM PDT on June 24, 2018 (GMT -0700)
Ramona

Weather History for KRNM - August, 2017

Change the Weather History Date:

Sunday, August 13, 2017

  Actual Average Record
Temperature  
Mean Temperature 73 °F 74 °F  
Max Temperature 92 °F 90 °F 103 °F (1996)
Min Temperature 54 °F 58 °F 45 °F (1976)
Degree Days  
Heating Degree Days 0 0  
Month to date heating degree days 0 0  
Since 1 June heating degree days 13 29  
Since 1 July heating degree days 0 2  
Cooling Degree Days 8 9  
Month to date cooling degree days 156 116  
Year to date cooling degree days 747 451  
Since 1 June cooling degree days 697 424  
Growing Degree Days 22 (Base 50)    
Moisture  
Dew Point 58 °F    
Average Humidity 67    
Maximum Humidity 100    
Minimum Humidity 34    
Precipitation  
Precipitation 0.01 in 0.01 in 0.05 in (1979)
Month to date precipitation 0.18 0.06  
Year to date precipitation 15.90 11.52  
Sea Level Pressure  
Sea Level Pressure 29.91 in    
Wind  
Wind Speed 4 mph (WNW)    
Max Wind Speed 15 mph    
Max Gust Speed 19 mph    
Visibility 5 miles    
Events Fog , Rain    
T = Trace of Precipitation, MM = Missing Value Source: NWS Daily Summary

Daily Weather History Graph

Daily Weather History Graph

Search for Another Location

Airport or City:

Astronomy

Aug. 13, 2017 Rise Set
Actual Time 6:09 AM PDT 7:34 PM PDT
Civil Twilight 5:43 AM PDT 8:00 PM PDT
Nautical Twilight 5:11 AM PDT 8:32 PM PDT
Astronomical Twilight 4:39 AM PDT 9:04 PM PDT
Moon 11:31 PM PDT (8/13) 11:55 AM PDT (8/13)
Length of Visible Light 14h 17m
Length of Day
13h 25m
Waning Gibbous, 64% of the Moon is Illuminated
Aug 13
Waning Gibbous
Aug 14
Last Quarter
Aug 21
New
Aug 29
First Quarter
Sep 6
Full

Hourly Weather History & Observations

Time (PDT) Temp. Heat Index Dew Point Humidity Pressure Visibility Wind Dir Wind Speed Gust Speed Precip Events Conditions
12:53 AM 61.0 °F - 59.0 °F 93% 29.89 in 7.0 mi Calm Calm - N/A   Clear
1:53 AM 57.9 °F - 57.0 °F 97% 29.88 in 5.0 mi Calm Calm - N/A   Clear
2:53 AM 59.0 °F - 57.9 °F 96% 29.88 in 5.0 mi Calm Calm - N/A   Scattered Clouds
2:59 AM 59.0 °F - 57.9 °F 96% 29.93 in 6.0 mi Calm Calm - N/A   Mostly Cloudy
3:11 AM 59.0 °F - 57.0 °F 93% 29.93 in 6.0 mi Calm Calm - N/A   Mostly Cloudy
3:20 AM 59.0 °F - 57.0 °F 93% 29.93 in 5.0 mi Calm Calm - N/A   Scattered Clouds
3:37 AM 57.9 °F - 57.0 °F 97% 29.93 in 1.8 mi Calm Calm - N/A   Partly Cloudy
3:47 AM 57.2 °F - 57.2 °F 100% 29.93 in 3.0 mi Calm Calm - N/A   Partly Cloudy
3:53 AM 57.9 °F - 57.0 °F 97% 29.88 in 6.0 mi Calm Calm - N/A   Partly Cloudy
4:00 AM 59.0 °F - 57.0 °F 93% 29.93 in 1.2 mi Calm Calm - N/A   Partly Cloudy
4:05 AM 57.9 °F - 57.9 °F 100% 29.93 in 0.2 mi Calm Calm - N/A Fog Fog
4:29 AM 55.9 °F - 55.9 °F 100% 29.93 in 1.0 mi Calm Calm - N/A   Mist
4:32 AM 57.0 °F - 57.0 °F 100% 29.93 in 2.5 mi Calm Calm - N/A   Overcast
4:40 AM 57.0 °F - 57.0 °F 100% 29.93 in 1.0 mi Calm Calm - N/A   Mist
4:53 AM 57.0 °F - 57.0 °F 100% 29.89 in 4.0 mi Calm Calm - N/A   Overcast
5:13 AM 55.9 °F - 55.9 °F 100% 29.93 in 1.5 mi Calm Calm - N/A   Mostly Cloudy
5:18 AM 55.0 °F - 55.0 °F 100% 29.93 in 0.2 mi Calm Calm - 0.00 in Fog , Rain Light Rain
5:41 AM 54.0 °F - 54.0 °F 100% 29.94 in 0.8 mi Calm Calm - 0.00 in   Mist
5:51 AM 55.4 °F - 55.4 °F 100% 29.94 in 1.0 mi Calm Calm - 0.00 in   Mist
5:53 AM 55.0 °F - 55.0 °F 100% 29.90 in 1.0 mi Calm Calm - 0.00 in   Mist
6:00 AM 55.0 °F - 55.0 °F 100% 29.94 in 0.5 mi Calm Calm - 0.01 in Fog Fog
6:09 AM 55.0 °F - 55.0 °F 100% 29.94 in 2.0 mi Calm Calm - 0.01 in   Overcast
6:16 AM 55.0 °F - 55.0 °F 100% 29.94 in 4.0 mi Calm Calm - 0.01 in   Overcast
6:46 AM 55.0 °F - 55.0 °F 100% 29.95 in 0.5 mi West 3.5 mph - 0.01 in Fog Fog
6:53 AM 55.0 °F - 55.0 °F 100% 29.92 in 0.2 mi Calm Calm - 0.01 in Fog , Rain Light Rain
7:53 AM 60.1 °F - 60.1 °F 100% 29.93 in 4.0 mi Calm Calm - 0.00 in   Scattered Clouds
8:53 AM 73.0 °F - 59.0 °F 61% 29.92 in 10.0 mi Calm Calm - N/A   Clear
9:53 AM 84.0 °F 82.9 °F 55.0 °F 37% 29.91 in 10.0 mi Calm Calm - N/A   Clear
10:53 AM 81.0 °F 81.6 °F 60.1 °F 49% 29.92 in 10.0 mi WNW 12.7 mph - N/A   Clear
11:53 AM 87.1 °F 86.5 °F 59.0 °F 39% 29.91 in 10.0 mi NW 8.1 mph - N/A   Clear
12:53 PM 90.0 °F 89.7 °F 60.1 °F 37% 29.91 in 10.0 mi WNW 10.4 mph - N/A   Clear
1:53 PM 90.0 °F 89.7 °F 60.1 °F 37% 29.89 in 10.0 mi NW 11.5 mph - N/A   Clear
2:53 PM 91.0 °F 90.2 °F 59.0 °F 34% 29.87 in 10.0 mi West 12.7 mph - N/A   Clear
3:53 PM 89.1 °F 88.8 °F 60.1 °F 38% 29.87 in 10.0 mi West 12.7 mph - 0.00 in   Clear
4:53 PM 86.0 °F 86.1 °F 61.0 °F 43% 29.87 in 10.0 mi WNW 11.5 mph - N/A   Clear
5:53 PM 82.9 °F 83.3 °F 61.0 °F 47% 29.86 in 10.0 mi West 8.1 mph - N/A   Clear
6:53 PM 77.0 °F - 62.1 °F 60% 29.87 in 10.0 mi WNW 8.1 mph - N/A   Clear
7:53 PM 68.0 °F - 60.1 °F 76% 29.88 in 10.0 mi West 5.8 mph - N/A   Clear
8:53 PM 64.9 °F - 59.0 °F 81% 29.88 in 10.0 mi WSW 3.5 mph - N/A   Clear
9:53 PM 63.0 °F - 59.0 °F 87% 29.89 in 10.0 mi Calm Calm - N/A   Clear
10:53 PM 61.0 °F - 59.0 °F 93% 29.90 in 7.0 mi Calm Calm - N/A   Clear
11:53 PM 60.1 °F - 59.0 °F 96% 29.90 in 5.0 mi Calm Calm - N/A   Clear